EW1268 Weather Reports


time (UTC)temp
C
wind
direction
speed
KPH
gust
KPH
rain 1hr
cm
rain 24hr
cm
rain mn
cm
humidity
%
barometer
mb
20260504221008 26 218 6.4 20.9 0.00 0.00 0.00 73 1011.2
20260504220510 26 287 9.7 20.9 0.00 0.00 0.00 72 1011.3
20260504220028 26 183 8.0 22.5 0.00 0.00 0.00 73 1011.4
20260504215510 26 175 6.4 22.5 0.00 0.00 0.00 72 1011.6
20260504215008 26 255 4.8 17.7 0.00 0.00 0.00 71 1011.6
20260504214529 26 229 8.0 17.7 0.00 0.00 0.00 71 1011.5
20260504214012 26 190 6.4 17.7 0.00 0.00 0.00 71 1011.6
20260504213511 26 190 8.0 22.5 0.00 0.00 0.00 69 1011.7
20260504213028 27 205 8.0 25.7 0.00 0.00 0.00 68 1011.7
20260504212507 27 136 11.3 25.7 0.00 0.00 0.00 68 1011.7
20260504212012 27 209 6.4 22.5 0.00 0.00 0.00 69 1011.8
20260504211527 27 211 4.8 22.5 0.00 0.00 0.00 68 1011.9
20260504211009 27 178 6.4 25.7 0.00 0.00 0.00 67 1012.0
20260504210511 27 187 4.8 25.7 0.00 0.00 0.00 67 1011.8
20260504210026 27 178 8.0 22.5 0.00 0.00 0.00 68 1012.0
20260504205508 28 229 4.8 14.5 0.00 0.00 0.00 66 1012.0
20260504205008 27 171 6.4 14.5 0.00 0.00 0.00 67 1012.1
20260504204523 27 257 4.8 17.7 0.00 0.00 0.00 66 1012.3
20260504204008 28 137 8.0 17.7 0.00 0.00 0.00 67 1012.4
20260504203509 28 166 6.4 16.1 0.00 0.00 0.00 65 1012.3
20260504203031 28 178 6.4 19.3 0.00 0.00 0.00 66 1012.3
20260504202515 28 202 6.4 19.3 0.00 0.00 0.00 65 1012.3
20260504202017 28 178 4.8 19.3 0.00 0.00 0.00 67 1012.3
20260504201520 28 185 9.7 19.3 0.00 0.00 0.00 68 1012.5
20260504201013 27 157 4.8 25.7 0.00 0.00 0.00 67 1012.6
20260504200510 28 138 8.0 25.7 0.00 0.00 0.00 67 1012.9
20260504200026 28 165 6.4 17.7 0.00 0.00 0.00 67 1012.8
20260504195509 27 206 4.8 16.1 0.00 0.00 0.00 67 1012.8
20260504195010 28 165 4.8 17.7 0.00 0.00 0.00 65 1012.9
20260504194531 28 193 6.4 17.7 0.00 0.00 0.00 65 1013.0
20260504194008 28 178 4.8 16.1 0.00 0.00 0.00 69 1013.1
20260504193508 27 238 4.8 16.1 0.00 0.00 0.00 67 1013.1
20260504193024 28 247 6.4 19.3 0.00 0.00 0.00 67 1013.2
20260504192510 28 286 4.8 20.9 0.00 0.00 0.00 64 1013.2
20260504192010 28 175 9.7 20.9 0.00 0.00 0.00 66 1013.2
20260504191527 28 178 8.0 19.3 0.00 0.00 0.00 68 1013.3
20260504191007 28 155 9.7 19.3 0.00 0.00 0.00 66 1013.3
20260504190515 27 178 3.2 17.7 0.00 0.00 0.00 69 1013.3
20260504190030 28 205 8.0 19.3 0.00 0.00 0.00 65 1013.4
20260504185512 28 184 8.0 20.9 0.00 0.00 0.00 68 1013.5
20260504185009 28 196 8.0 20.9 0.00 0.00 0.00 65 1013.5
20260504184526 27 238 8.0 20.9 0.00 0.00 0.00 67 1013.8
20260504184011 27 171 8.0 22.5 0.00 0.00 0.00 66 1013.8
20260504183514 28 157 9.7 22.5 0.00 0.00 0.00 65 1013.7
20260504183029 28 183 6.4 22.5 0.00 0.00 0.00 67 1013.8
20260504182507 27 185 6.4 17.7 0.00 0.00 0.00 68 1013.8
20260504182011 28 178 6.4 17.7 0.00 0.00 0.00 67 1013.9
20260504181532 28 137 4.8 16.1 0.00 0.00 0.00 64 1013.9
20260504181010 28 161 4.8 19.3 0.00 0.00 0.00 66 1014.1
20260504180513 28 216 9.7 19.3 0.00 0.00 0.00 68 1014.1
20260504180011 28 183 8.0 22.5 0.00 0.00 0.00 68 1014.1
20260504175508 27 171 9.7 24.1 0.00 0.00 0.00 66 1014.3
20260504175004 27 193 9.7 24.1 0.00 0.00 0.00 67 1014.3
20260504174519 27 182 6.4 24.1 0.00 0.00 0.00 66 1014.5
20260504174006 27 170 9.7 24.1 0.00 0.00 0.00 69 1014.5
20260504173507 27 178 9.7 27.4 0.00 0.00 0.00 67 1014.7
20260504173019 27 142 9.7 27.4 0.00 0.00 0.00 68 1014.6
20260504172505 27 163 11.3 25.7 0.00 0.00 0.00 68 1014.5
20260504172004 26 157 4.8 20.9 0.00 0.00 0.00 72 1014.9
20260504171512 26 247 6.4 20.9 0.00 0.00 0.00 69 1014.9
20260504171007 26 157 6.4 20.9 0.00 0.00 0.00 67 1015.2
20260504170506 26 183 8.0 25.7 0.00 0.00 0.00 67 1015.1
20260504151007 23 188 6.4 20.9 0.00 0.00 0.00 75 1015.8
20260504150510 23 221 11.3 19.3 0.00 0.00 0.00 75 1015.9
20260504141008 20 173 6.4 14.5 0.00 0.00 0.00 82 1015.8
20260504140508 20 184 6.4 14.5 0.00 0.00 0.00 83 1015.8
20260504130511 15 163 1.6 6.4 0.00 0.00 0.00 92 1015.7
20260504110506 13 126 0.0 1.6 0.00 0.00 0.00 89 1015.3
20260504100503 13 119 0.0 3.2 0.00 0.00 0.00 89 1015.5
20260504081526 14 51 0.0 3.2 0.00 0.00 0.00 88 1016.1
20260504081010 14 119 0.0 1.6 0.00 0.00 0.00 88 1016.2
20260504080504 14 67 0.0 3.2 0.00 0.00 0.00 88 1016.2
20260504050508 16 137 1.6 4.8 0.00 0.00 0.00 78 1018.6
20260504045506 16 161 0.0 3.2 0.00 0.00 0.00 79 1018.5
20260504045504 16 157 0.0 3.2 0.00 0.00 0.00 79 1018.5
20260504045004 17 93 0.0 3.2 0.00 0.00 0.00 78 1018.5
20260504044515 17 168 0.0 4.8 0.00 0.00 0.00 78 1018.6
20260504044005 17 93 1.6 4.8 0.00 0.00 0.00 76 1018.5
20260504043508 17 119 0.0 3.2 0.00 0.00 0.00 76 1018.5
20260504043024 17 146 0.0 3.2 0.00 0.00 0.00 76 1018.6
20260504042509 17 153 0.0 3.2 0.00 0.00 0.00 75 1018.7
20260504042009 17 161 1.6 3.2 0.00 0.00 0.00 76 1018.6
20260504041510 17 93 0.0 3.2 0.00 0.00 0.00 76 1018.7
20260504041007 17 126 0.0 3.2 0.00 0.00 0.00 75 1018.7
20260504040507 17 165 1.6 3.2 0.00 0.00 0.00 73 1018.7
20260504040018 17 205 1.6 4.8 0.00 0.00 0.00 73 1018.6
20260504035512 17 168 1.6 8.0 0.00 0.00 0.00 73 1018.6
20260504035009 17 153 1.6 9.7 0.00 0.00 0.00 72 1018.3
20260504034525 18 161 1.6 9.7 0.00 0.00 0.00 72 1018.3
20260504034011 18 178 1.6 6.4 0.00 0.00 0.00 72 1018.3
20260504033509 18 165 1.6 9.7 0.00 0.00 0.00 71 1018.3
20260504033027 18 198 3.2 9.7 0.00 0.00 0.00 71 1018.4
20260504032509 18 221 3.2 9.7 0.00 0.00 0.00 71 1018.4
20260504032009 18 153 1.6 9.7 0.00 0.00 0.00 70 1018.4
20260504031523 18 170 3.2 9.7 0.00 0.00 0.00 69 1018.3
20260504031009 18 163 3.2 11.3 0.00 0.00 0.00 69 1018.2
20260504030509 18 234 4.8 11.3 0.00 0.00 0.00 69 1018.2
20260504030029 18 166 3.2 9.7 0.00 0.00 0.00 68 1018.2
20260504025503 19 200 4.8 9.7 0.00 0.00 0.00 68 1018.2
20260504025004 19 169 4.8 12.9 0.00 0.00 0.00 67 1018.1
20260504024511 19 188 3.2 12.9 0.00 0.00 0.00 67 1018.1
20260504024007 19 192 6.4 11.3 0.00 0.00 0.00 67 1018.1
20260504023508 19 146 4.8 11.3 0.00 0.00 0.00 66 1018.0
20260504023025 20 221 4.8 14.5 0.00 0.00 0.00 66 1017.9
20260504022509 20 169 6.4 14.5 0.00 0.00 0.00 65 1018.0
20260504022010 20 155 4.8 14.5 0.00 0.00 0.00 65 1018.0
20260504021509 20 178 4.8 14.5 0.00 0.00 0.00 65 1017.9
20260504021004 20 188 3.2 11.3 0.00 0.00 0.00 64 1017.9
20260504020508 20 167 4.8 11.3 0.00 0.00 0.00 63 1017.9
20260504020016 20 164 3.2 9.7 0.00 0.00 0.00 63 1017.9
20260504015506 20 159 3.2 16.1 0.00 0.00 0.00 63 1017.8
20260504015008 20 169 4.8 16.1 0.00 0.00 0.00 62 1017.7
20260504014521 21 146 4.8 14.5 0.00 0.00 0.00 62 1017.8
20260504014012 21 175 4.8 16.1 0.00 0.00 0.00 62 1017.9
20260504013506 21 167 6.4 16.1 0.00 0.00 0.00 61 1018.0
20260504013014 21 173 6.4 17.7 0.00 0.00 0.00 60 1017.9
20260504012507 21 140 9.7 17.7 0.00 0.00 0.00 60 1017.8
20260504012011 21 186 6.4 14.5 0.00 0.00 0.00 60 1017.8
20260504011519 21 155 4.8 12.9 0.00 0.00 0.00 59 1017.7
20260504011006 22 153 3.2 11.3 0.00 0.00 0.00 58 1017.8
20260504010512 22 177 3.2 11.3 0.00 0.00 0.00 58 1017.7
20260504010026 22 161 3.2 17.7 0.00 0.00 0.00 57 1017.7
20260504005505 22 213 8.0 17.7 0.00 0.00 0.00 56 1017.6
20260504005007 23 229 8.0 17.7 0.00 0.00 0.00 55 1017.8
20260504004515 23 205 6.4 16.1 0.00 0.00 0.00 55 1017.8
20260504004009 23 170 6.4 16.1 0.00 0.00 0.00 54 1017.7
20260504003509 23 178 3.2 17.7 0.00 0.00 0.00 55 1017.9
20260504003030 23 164 4.8 17.7 0.00 0.00 0.00 53 1017.8
20260504002509 23 163 6.4 19.3 0.00 0.00 0.00 53 1017.7
20260504002009 24 198 8.0 19.3 0.00 0.00 0.00 53 1017.7
20260504001510 24 196 8.0 17.7 0.00 0.00 0.00 51 1017.8
20260504001004 25 187 8.0 27.4 0.00 0.00 0.00 50 1017.7
20260504000506 25 166 9.7 27.4 0.00 0.00 0.00 49 1017.8
20260504000046 26 166 11.3 27.4 0.00 0.00 0.00 48 1017.7
20260503235509 27 160 8.0 16.1 0.00 0.00 0.00 46 1017.7
20260503235008 27 188 6.4 14.5 0.00 0.00 0.00 45 1017.8
20260503234526 27 234 3.2 14.5 0.00 0.00 0.00 43 1017.8
20260503234008 27 205 4.8 14.5 0.00 0.00 0.00 45 1017.7
20260503233502 27 184 4.8 16.1 0.00 0.00 0.00 45 1017.7
20260503233010 27 178 6.4 17.7 0.00 0.00 0.00 45 1017.8
20260503232507 28 238 4.8 17.7 0.00 0.00 0.00 42 1017.9
20260503232007 28 196 6.4 19.3 0.00 0.00 0.00 44 1017.9
20260503231523 28 173 4.8 19.3 0.00 0.00 0.00 42 1018.1
20260503231009 28 185 8.0 16.1 0.00 0.00 0.00 43 1018.0
20260503230509 28 198 6.4 17.7 0.00 0.00 0.00 41 1018.1
20260503230026 27 186 6.4 17.7 0.00 0.00 0.00 42 1018.1
20260503225509 28 139 3.2 19.3 0.00 0.00 0.00 45 1018.0
20260503225009 27 209 8.0 19.3 0.00 0.00 0.00 42 1018.0
20260503224515 27 196 4.8 19.3 0.00 0.00 0.00 42 1018.1
20260503224006 28 194 8.0 19.3 0.00 0.00 0.00 41 1018.2
20260503223511 28 247 4.8 17.7 0.00 0.00 0.00 42 1018.2
20260503223028 28 161 3.2 16.1 0.00 0.00 0.00 39 1018.3
20260503222509 28 148 6.4 16.1 0.00 0.00 0.00 45 1018.2
20260503222011 28 119 3.2 19.3 0.00 0.00 0.00 42 1018.4
20260503221532 28 51 8.0 19.3 0.00 0.00 0.00 40 1018.5